| time (UTC) | temp C | wind direction | speed KPH | gust KPH | rain 1hr cm | rain 24hr cm | rain mn cm | humidity % | barometer mb |
| 20260504050212 | 9 | 225 | 3.2 | 6.4 | 0.00 | 0.00 | 0.00 | 41 | 992.2 |
| 20260504045212 | 9 | 210 | 6.4 | 9.7 | 0.00 | 0.00 | 0.00 | 41 | 992.2 |
| 20260504044311 | 9 | 203 | 3.2 | 8.0 | 0.00 | 0.00 | 0.00 | 41 | 992.6 |
| 20260504043314 | 10 | 202 | 3.2 | 4.8 | 0.00 | 0.00 | 0.00 | 41 | 992.6 |
| 20260504042412 | 10 | 202 | 1.6 | 4.8 | 0.00 | 0.00 | 0.00 | 41 | 992.6 |
| 20260504041411 | 10 | 202 | 1.6 | 3.2 | 0.00 | 0.00 | 0.00 | 41 | 992.6 |
| 20260504040415 | 10 | 202 | 1.6 | 3.2 | 0.00 | 0.00 | 0.00 | 41 | 992.6 |
| 20260504035424 | 10 | 202 | 1.6 | 3.2 | 0.00 | 0.00 | 0.00 | 41 | 992.6 |
| 20260504033524 | 11 | 202 | 3.2 | 4.8 | 0.00 | 0.00 | 0.00 | 43 | 992.6 |
| 20260504032522 | 11 | 225 | 3.2 | 4.8 | 0.00 | 0.00 | 0.00 | 43 | 992.8 |
| 20260504031621 | 11 | 202 | 3.2 | 6.4 | 0.00 | 0.00 | 0.00 | 41 | 992.9 |
| 20260504030623 | 11 | 247 | 1.6 | 3.2 | 0.00 | 0.00 | 0.00 | 41 | 993.2 |
| 20260504025621 | 12 | 247 | 1.6 | 4.8 | 0.00 | 0.00 | 0.00 | 41 | 992.9 |
| 20260504024622 | 11 | 225 | 1.6 | 4.8 | 0.00 | 0.00 | 0.00 | 41 | 993.2 |
| 20260504023623 | 11 | 247 | 1.6 | 4.8 | 0.00 | 0.00 | 0.00 | 41 | 993.2 |
| 20260504022624 | 11 | 270 | 1.6 | 3.2 | 0.00 | 0.00 | 0.00 | 41 | 993.2 |
| 20260504021621 | 12 | 270 | 0.0 | 3.2 | 0.00 | 0.00 | 0.00 | 41 | 993.6 |
| 20260504020622 | 12 | 292 | 0.0 | 0.0 | 0.00 | 0.00 | 0.00 | 41 | 993.6 |
| 20260504015623 | 12 | 247 | 1.6 | 3.2 | 0.00 | 0.00 | 0.00 | 42 | 993.6 |
| 20260504014721 | 12 | 225 | 1.6 | 3.2 | 0.00 | 0.00 | 0.00 | 44 | 993.6 |
| 20260504013723 | 12 | 292 | 0.0 | 0.0 | 0.00 | 0.00 | 0.00 | 45 | 993.6 |
| 20260504011725 | 12 | 284 | 1.6 | 6.4 | 0.00 | 0.00 | 0.00 | 45 | 993.6 |
| 20260504010722 | 12 | 252 | 6.4 | 9.7 | 0.00 | 0.00 | 0.00 | 45 | 993.9 |
| 20260504005722 | 12 | 255 | 6.4 | 14.5 | 0.00 | 0.00 | 0.00 | 45 | 993.6 |
| 20260504004721 | 13 | 254 | 9.7 | 14.5 | 0.00 | 0.00 | 0.00 | 45 | 993.6 |
| 20260504003722 | 13 | 292 | 8.0 | 17.7 | 0.00 | 0.00 | 0.00 | 45 | 993.6 |
| 20260504001822 | 13 | 269 | 6.4 | 19.3 | 0.00 | 0.00 | 0.00 | 46 | 993.2 |
| 20260504000822 | 13 | 285 | 3.2 | 11.3 | 0.00 | 0.00 | 0.00 | 45 | 992.9 |
| 20260503235823 | 13 | 287 | 3.2 | 11.3 | 0.00 | 0.00 | 0.00 | 45 | 992.9 |
| 20260503233823 | 13 | 238 | 6.4 | 14.5 | 0.00 | 0.00 | 0.00 | 45 | 992.9 |
| 20260503230922 | 13 | 264 | 9.7 | 17.7 | 0.00 | 0.00 | 0.00 | 45 | 993.2 |
| 20260503230021 | 13 | 309 | 1.6 | 17.7 | 0.00 | 0.00 | 0.00 | 43 | 993.0 |
| 20260503225023 | 13 | 270 | 9.7 | 27.4 | 0.00 | 0.00 | 0.00 | 42 | 993.0 |
| 20260503224022 | 13 | 317 | 0.0 | 6.4 | 0.00 | 0.00 | 0.00 | 42 | 992.7 |
| 20260503221122 | 14 | 247 | 4.8 | 11.3 | 0.00 | 0.00 | 0.00 | 42 | 992.6 |
| 20260503220125 | 14 | 271 | 4.8 | 11.3 | 0.00 | 0.00 | 0.00 | 42 | 992.9 |
| 20260503215123 | 13 | 279 | 3.2 | 6.4 | 0.00 | 0.00 | 0.00 | 42 | 992.9 |
| 20260503213222 | 14 | 257 | 8.0 | 11.3 | 0.00 | 0.00 | 0.00 | 43 | 992.9 |
| 20260503212221 | 14 | 261 | 8.0 | 17.7 | 0.00 | 0.00 | 0.00 | 45 | 992.9 |
| 20260503210222 | 13 | 260 | 3.2 | 8.0 | 0.00 | 0.00 | 0.00 | 44 | 992.9 |
| 20260503205223 | 13 | 254 | 3.2 | 6.4 | 0.00 | 0.00 | 0.00 | 44 | 993.2 |
| 20260503204222 | 13 | 247 | 1.6 | 4.8 | 0.00 | 0.00 | 0.00 | 44 | 993.2 |
| 20260503203321 | 13 | 259 | 6.4 | 11.3 | 0.00 | 0.00 | 0.00 | 43 | 993.2 |
| 20260503202322 | 13 | 267 | 8.0 | 14.5 | 0.00 | 0.00 | 0.00 | 43 | 993.2 |
| 20260503200321 | 12 | 285 | 1.6 | 6.4 | 0.00 | 0.00 | 0.00 | 42 | 993.9 |
| 20260503195321 | 12 | 261 | 6.4 | 9.7 | 0.00 | 0.00 | 0.00 | 42 | 993.9 |
| 20260503193421 | 12 | 260 | 8.0 | 12.9 | 0.00 | 0.00 | 0.00 | 42 | 994.3 |
| 20260503191423 | 13 | 253 | 12.9 | 17.7 | 0.00 | 0.00 | 0.00 | 44 | 994.6 |
| 20260503190521 | 13 | 265 | 11.3 | 17.7 | 0.00 | 0.00 | 0.00 | 42 | 994.6 |
| 20260503184522 | 13 | 317 | 0.0 | 0.0 | 0.00 | 0.00 | 0.00 | 42 | 994.6 |
| 20260503183521 | 13 | 273 | 6.4 | 16.1 | 0.00 | 0.00 | 0.00 | 42 | 994.6 |
| 20260503182521 | 12 | 290 | 3.2 | 12.9 | 0.00 | 0.00 | 0.00 | 41 | 994.6 |
| 20260503181524 | 13 | 310 | 1.6 | 9.7 | 0.00 | 0.00 | 0.00 | 42 | 994.6 |
| 20260503180523 | 13 | 274 | 4.8 | 19.3 | 0.00 | 0.00 | 0.00 | 42 | 994.6 |
| 20260503175523 | 13 | 331 | 0.0 | 0.0 | 0.00 | 0.00 | 0.00 | 42 | 994.6 |
| 20260503172624 | 12 | 322 | 0.0 | 3.2 | 0.00 | 0.00 | 0.00 | 43 | 994.9 |
| 20260503170723 | 11 | 41 | 0.0 | 4.8 | 0.00 | 0.00 | 0.00 | 45 | 994.9 |
| 20260503150823 | 10 | 313 | 0.0 | 3.2 | 0.00 | 0.00 | 0.00 | 41 | 996.3 |
| 20260503131023 | 7 | 292 | 4.8 | 17.7 | 0.00 | 0.00 | 0.00 | 42 | 996.7 |
| 20260503120123 | 5 | 276 | 3.2 | 6.4 | 0.00 | 0.00 | 0.00 | 51 | 996.3 |
| 20260503110220 | 3 | 260 | 6.4 | 9.7 | 0.00 | 0.00 | 0.00 | 50 | 995.3 |
| 20260503080923 | 3 | 247 | 1.6 | 3.2 | 0.00 | 0.00 | 0.00 | 50 | 995.3 |
| 20260503071224 | 3 | 292 | 0.0 | 0.0 | 0.00 | 0.00 | 0.00 | 50 | 995.3 |
| 20260503060322 | 3 | 315 | 0.0 | 0.0 | 0.00 | 0.00 | 0.00 | 50 | 995.3 |
| 20260503054422 | 3 | 337 | 0.0 | 0.0 | 0.00 | 0.00 | 0.00 | 50 | 995.7 |
| 20260503053421 | 3 | 337 | 0.0 | 0.0 | 0.00 | 0.00 | 0.00 | 50 | 995.7 |